CZ-3B DEB, 40848

Orbit data source: Space-Track

CZ-3B DEB, 40848 is space debris in HEO originally from a launch on Mon, 19 Dec 2011 UTC launched from the Xichang Space Center, China (XSC). Debris objects in space refer to the collection of defunct objects orbiting the Earth. Examples of debris include non-operational satellites, rocket bodies, and fragments generated from explosions, collisions, or faulty payload assembly.

Loading next visibility...
CZ-3B DEB details
Identifier
40848, 2011-077AD
Orbit
HEO
Last TLE update21 hours ago
Origin
Flag of CNCASC (CN / PRC)
ManufacturerCALT
MissionSpacecraft
Bus & MotorUnknown
MassUnknown
Launch date (UTC)
2011-12-19 (13 years ago)
Launch vehicleUnknown
Launch site
Xichang Space Center, China (XSC)
Object type
Payload
Rocket body
Debris
Shape & HBRUnknown
Radar Cross SectionMedium (>0.1 m² and <1 m²)

Expand to show TLE details & history

TLE from 21 hours ago
0 CZ-3B DEB
1 40848U 11077AD  24360.61779940  .00000890  00000-0  32731-1 0  9992
2 40848  25.6820 144.5808 7424152 138.3300 312.0971  1.90938660 68797
Epoch: 2024-12-25T14:49Z
Definitive object data (Epoch: 2024-12-25T14:49:37.868Z)
Latitude-0.00003°
Longitude-172.45046°
Altitude21,211.119 km
Speed3.791 km/s
True Right ascension09h 38m 15s
True Declination0° 00' 00"
Sunlit
Object was in daylight at TLE epoch
Visualization TLE readout
Latitude-15.76791°
Longitude151.35814°
Altitude41,339.69 km
Speed1.478 km/s
Apparent Right ascension06h 51m 33s
Apparent Declination-21° 21' 36"
Sunlit
Object is in daylight
Visualization observer readout
Local Sidereal Time11:06:00
Azimuth236.848° WSW
Elevation4.804°
Doppler factor1
Orbital elements
Apogee altitude41,450.188 km
Perigee altitude692.422 km
Semi-major axis27,449.442 km
Eccentricity0.7424152
Inclination25.682°
RAAN144.5808°
Arg. of periapsis138.33°
True anomaly221.76923°
Mean anomaly312.0971°
Eccentric anomaly269.56109°
Mean motion0.47725 °/min
BSTAR0.032731
Orbital period754.33 mins
Loading maneuver chart data...
Loading historical data...
Loading historical data...
Loading historical data...
Loading historical data...
Loading historical data...
Loading historical data...
Loading historical data...

CZ-3B DEB Visibility forecast

Observer location: undefined°, undefined

Span
Click to sort rows by Start time (UTC) header in descending order
Start Az.
Max El. time (UTC)
Max El. Az.
Max El.
End time (UTC)
End Az.
17 mins2024-12-26 17:16:37.034Z260.361° W2024-12-26 17:29:37.034Z205.215° SW24.569°2024-12-26 17:33:37.034Z150.322° SSE
|